This demonstration page uses our WeatherBlox Daily Observations layout. Learn more.

Left ArrowRight Arrow

38.20091, -84.87328

Hourly Observations for September 26, 2021

Temp ( °F °C ) Dew Point ( °F °C ) Humidity (%) Winds ( mph kmh ) Pressure ( in mb ) Visibility ( mi km ) Precip ( " mm )
12:53 am 00:53 Clear 49 9.4 48 8.9 97 97 Calm 30.10 1019 10 16 0.00 0.00
1:53 am 01:53 Clear 49 9.4 47 8.3 93 93 Calm 30.10 1019 10 16 0.00 0.00
2:53 am 02:53 Clear 49 9.4 46 7.8 90 90 Calm 30.09 1019 10 16 0.00 0.00
3:53 am 03:53 Clear 47 8.3 45 7.2 93 93 SSW 3 6 30.09 1019 10 16 0.00 0.00
4:53 am 04:53 Clear 47 8.3 45 7.2 93 93 Calm 30.10 1019 10 16 0.00 0.00
5:53 am 05:53 Clear 46 7.8 44 6.7 93 93 Calm 30.10 1019 10 16 0.00 0.00
6:53 am 06:53 Clear 46 7.8 44 6.7 93 93 Calm 30.12 1020 10 16 0.00 0.00
7:53 am 07:53 Sunny 46 7.8 44 6.7 93 93 Calm 30.14 1021 10 16 0.00 0.00
8:53 am 08:53 Sunny 53 11.7 49 9.4 86 86 SW 3 6 30.14 1021 10 16 0.00 0.00
9:53 am 09:53 Sunny 60 15.6 51 10.6 72 72 SW 8 13 30.15 1021 10 16 0.00 0.00
10:53 am 10:53 Sunny 66 18.9 51 10.6 59 59 WSW 7 11 30.16 1021 10 16 0.00 0.00
11:53 am 11:53 Sunny 70 21.1 50 10 49 49 SW 10 17 30.16 1021 10 16 0.00 0.00
12:53 pm 12:53 Sunny 73 22.8 51 10.6 46 46 WSW 9 15 30.15 1021 10 16 0.00 0.00
1:53 pm 13:53 Sunny 73 22.8 47 8.3 40 40 SW 6 9 30.13 1020 10 16 0.00 0.00
2:53 pm 14:53 Sunny 74 23.3 46 7.8 37 37 SSW 8 13 30.11 1020 10 16 0.00 0.00
3:53 pm 15:53 Sunny 74 23.3 47 8.3 38 38 SW 8 13 30.09 1019 10 16 0.00 0.00
4:53 pm 16:53 Sunny 74 23.3 47 8.3 38 38 SW 10 17 30.08 1019 10 16 0.00 0.00
5:53 pm 17:53 Sunny 73 22.8 48 8.9 41 41 SSW 9 15 30.07 1018 10 16 0.00 0.00
6:53 pm 18:53 Sunny 70 21.1 50 10 49 49 SSW 7 11 30.07 1018 10 16 0.00 0.00
7:53 pm 19:53 Clear 61 16.1 55 12.8 81 81 S 3 6 30.07 1018 10 16 0.00 0.00
8:53 pm 20:53 Clear 59 15 54 12.2 83 83 Calm 30.06 1018 10 16 0.00 0.00
9:53 pm 21:53 Clear 57 13.9 53 11.7 87 87 SW 5 7 30.06 1018 10 16 0.00 0.00
10:53 pm 22:53 Clear 57 13.9 52 11.1 83 83 SW 3 6 30.06 1018 10 16 0.00 0.00
11:53 pm 23:53 Clear 57 13.9 52 11.1 83 83 Calm 30.07 1018 10 16 0.00 0.00

Powered by AerisWeather